Location: Balagbag Mahabang Kahoy
(14.1562°N, 120.9200°E)
Time: 04:55:36
(UTC+00:00)

Cosmos 407 Rocket - Pass Details

Date: 16 January 2026
Orbit: 738 x 782 km, 74.0° (Epoch: 14 February)

Event Time Altitude Azimuth Distance (km) Brightness Sun altitude
Rises 21:22:38 0° 193° (SSW) 3,158 6.8 -15.0°
Reaches altitude 10° 21:24:58 10° 193° (SSW) 2,237 6.0 -14.4°
Maximum altitude 21:30:02 89° 283° (WNW) 743 3.4 -13.3°
Drops below altitude 10° 21:35:08 10° 13° (NNE) 2,253 5.9 -12.1°
Sets 21:37:30 0° 13° (NNE) 3,182 6.7 -11.5°
